,,PA_Meas_PMT16A,,PR_Meas_QMR101_102,,RH_Meas_QMH101,,SR_Meas_QMS101,,TA_Meas_QMH101,,GenWind,,GenWind,
time,status,PA,status,PR,status,RH,status,SR,status,TA,status,DirAvg,status,SpdAvg,
2010-08-17, 00:00:04,VALID,918.094,VALID,0,VALID,97.4501,VALID,0,VALID,19.7973,VALID,42,VALID,0.835547,
2010-08-17, 00:01:04,VALID,918.106,VALID,0,VALID,97.4273,VALID,0,VALID,19.8378,VALID,42,VALID,0.658203,
2010-08-17, 00:02:04,VALID,918.107,VALID,0,VALID,97.4273,VALID,0,VALID,19.8183,VALID,42,VALID,1.22383,
2010-08-17, 00:03:04,VALID,918.097,VALID,0,VALID,97.4425,VALID,0,VALID,19.7988,VALID,42,VALID,0.646484,
2010-08-17, 00:04:04,VALID,918.099,VALID,0,VALID,97.4501,VALID,0,VALID,19.8183,VALID,42,VALID,0.751562,
2010-08-17, 00:05:04,VALID,918.075,VALID,0,VALID,97.4577,VALID,0,VALID,19.8183,VALID,42,VALID,0.647656,
2010-08-17, 00:06:04,VALID,918.09,VALID,0,VALID,97.4425,VALID,0,VALID,19.8378,VALID,42,VALID,0.867188,
2010-08-17, 00:07:04,VALID,918.049,VALID,0,VALID,97.4273,VALID,0,VALID,19.7988,VALID,42,VALID,0.845703,
2010-08-17, 00:08:04,VALID,918.052,VALID,0,VALID,97.4425,VALID,0,VALID,19.7598,VALID,42,VALID,0.802734,
2010-08-17, 00:09:04,VALID,918.048,VALID,0,VALID,97.4196,VALID,0,VALID,19.7793,VALID,42,VALID,0.424609,
2010-08-17, 00:10:04,VALID,918.029,VALID,0,VALID,97.4501,VALID,0,VALID,19.7598,VALID,42,VALID,0.607031,
2010-08-17, 00:11:04,VALID,918.002,VALID,0,VALID,97.4577,VALID,0,VALID,19.7613,VALID,42,VALID,0.608984,
2010-08-17, 00:12:04,VALID,917.966,VALID,0,VALID,97.4349,VALID,0,VALID,19.7208,VALID,42,VALID,0.646484,
2010-08-17, 00:13:04,VALID,917.958,VALID,0,VALID,97.4425,VALID,0,VALID,19.7208,VALID,42,VALID,0.885547,
2010-08-17, 00:14:04,VALID,917.924,VALID,0,VALID,97.473,VALID,0,VALID,19.7208,VALID,42,VALID,0.756641,
2010-08-17, 00:15:04,VALID,917.911,VALID,0,VALID,97.4654,VALID,0,VALID,19.7013,VALID,42,VALID,0.615625,
2010-08-17, 00:16:04,VALID,917.884,VALID,0,VALID,97.4425,VALID,0.107441,VALID,19.7208,VALID,42,VALID,0.415625,
2010-08-17, 00:17:04,VALID,917.921,VALID,0,VALID,97.4577,VALID,0,VALID,19.7013,VALID,42,VALID,0.251953,
2010-08-17, 00:18:04,VALID,917.92,VALID,0,VALID,97.4577,VALID,0,VALID,19.7013,VALID,42,VALID,0.654297,
2010-08-17, 00:19:04,VALID,917.938,VALID,0,VALID,97.4806,VALID,0,VALID,19.7028,VALID,42,VALID,0.307813,
2010-08-17, 00:20:04,VALID,917.945,VALID,0,VALID,97.4806,VALID,0,VALID,19.6818,VALID,42,VALID,0.173438,
2010-08-17, 00:21:04,VALID,917.969,VALID,0,VALID,97.4654,VALID,0,VALID,19.6818,VALID,42,VALID,0.338281,
2010-08-17, 00:22:04,VALID,917.964,VALID,0,VALID,97.4806,VALID,0.107441,VALID,19.7013,VALID,42,VALID,0.388672,
2010-08-17, 00:23:04,VALID,917.98,VALID,0,VALID,97.473,VALID,0,VALID,19.7028,VALID,42,VALID,0.644922,
2010-08-17, 00:24:04,VALID,917.973,VALID,0,VALID,97.473,VALID,0,VALID,19.6818,VALID,42,VALID,0.544141,
2010-08-17, 00:25:04,VALID,918.021,VALID,0,VALID,97.4806,VALID,0,VALID,19.7013,VALID,42,VALID,0.593359,
2010-08-17, 00:26:04,VALID,918.012,VALID,0,VALID,97.4882,VALID,0,VALID,19.7208,VALID,42,VALID,0.576172,
2010-08-17, 00:27:04,VALID,918.027,VALID,0,VALID,97.4654,VALID,0,VALID,19.7013,VALID,42,VALID,0.407813,
2010-08-17, 00:28:04,VALID,918.015,VALID,0,VALID,97.4654,VALID,0,VALID,19.7223,VALID,42,VALID,0.280078,
2010-08-17, 00:29:04,VALID,917.984,VALID,0,VALID,97.4806,VALID,0,VALID,19.7208,VALID,42,VALID,0.248828,
2010-08-17, 00:30:04,VALID,918.005,VALID,0,VALID,97.4654,VALID,0,VALID,19.7208,VALID,42,VALID,0.397266,
2010-08-17, 00:31:04,VALID,918.015,VALID,0,VALID,97.4959,VALID,0,VALID,19.7208,VALID,42,VALID,0,
2010-08-17, 00:32:04,VALID,918.013,VALID,0,VALID,97.4959,VALID,0,VALID,19.7403,VALID,42,VALID,0.237109,
2010-08-17, 00:33:04,VALID,917.996,VALID,0,VALID,97.4882,VALID,0,VALID,19.7403,VALID,42,VALID,0,
2010-08-17, 00:34:04,VALID,917.989,VALID,0,VALID,97.4806,VALID,0,VALID,19.7403,VALID,42,VALID,0,
2010-08-17, 00:35:04,VALID,918.017,VALID,0,VALID,97.473,VALID,0,VALID,19.7403,VALID,42,VALID,0,
2010-08-17, 00:36:04,VALID,917.971,VALID,0,VALID,97.4654,VALID,0,VALID,19.7598,VALID,42,VALID,0,
2010-08-17, 00:37:04,VALID,917.938,VALID,0,VALID,97.473,VALID,0,VALID,19.7598,VALID,42,VALID,0.302344,
2010-08-17, 00:38:04,VALID,917.894,VALID,0,VALID,97.4882,VALID,0,VALID,19.7793,VALID,42,VALID,0.159375,
2010-08-17, 00:39:04,VALID,917.91,VALID,0,VALID,97.4882,VALID,0,VALID,19.7988,VALID,42,VALID,0.246094,
2010-08-17, 00:40:04,VALID,917.855,VALID,0,VALID,97.4806,VALID,0,VALID,19.7988,VALID,42,VALID,0.463672,
2010-08-17, 00:41:04,VALID,917.858,VALID,0,VALID,97.4882,VALID,0,VALID,19.7598,VALID,42,VALID,0.420312,
2010-08-17, 00:42:05,VALID,917.803,VALID,0,VALID,97.473,VALID,0,VALID,19.7403,VALID,42,VALID,0.539844,
2010-08-17, 00:43:05,VALID,917.802,VALID,0,VALID,97.4882,VALID,0,VALID,19.6818,VALID,42,VALID,0.284375,
2010-08-17, 00:44:05,VALID,917.795,VALID,0,VALID,97.4959,VALID,0,VALID,19.7013,VALID,42,VALID,0.440234,
2010-08-17, 00:45:05,VALID,917.776,VALID,0,VALID,97.4806,VALID,0,VALID,19.6818,VALID,42,VALID,0.321875,
2010-08-17, 00:46:05,VALID,917.781,VALID,0,VALID,97.473,VALID,0,VALID,19.7028,VALID,42,VALID,0.289453,
2010-08-17, 00:47:05,VALID,917.799,VALID,0,VALID,97.5035,VALID,0,VALID,19.7013,VALID,42,VALID,0.0773437,
2010-08-17, 00:48:05,VALID,917.741,VALID,0,VALID,97.4959,VALID,0,VALID,19.7013,VALID,42,VALID,0,
2010-08-17, 00:49:05,VALID,917.717,VALID,0,VALID,97.5035,VALID,0,VALID,19.7013,VALID,42,VALID,0.0992187,
2010-08-17, 00:50:05,VALID,917.73,VALID,0,VALID,97.4882,VALID,0,VALID,19.7013,VALID,42,VALID,0,
2010-08-17, 00:51:05,VALID,917.714,VALID,0,VALID,97.4959,VALID,0,VALID,19.7013,VALID,42,VALID,0,
2010-08-17, 00:52:05,VALID,917.702,VALID,0,VALID,97.4959,VALID,0,VALID,19.7013,VALID,42,VALID,0,
2010-08-17, 00:53:05,VALID,917.668,VALID,0,VALID,97.5111,VALID,0,VALID,19.7208,VALID,42,VALID,0,
2010-08-17, 00:54:05,VALID,917.66,VALID,0,VALID,97.4959,VALID,0,VALID,19.7208,VALID,42,VALID,0,
2010-08-17, 00:55:05,VALID,917.669,VALID,0,VALID,97.4959,VALID,0,VALID,19.7208,VALID,42,VALID,0,
2010-08-17, 00:56:05,VALID,917.62,VALID,0,VALID,97.5035,VALID,0,VALID,19.7013,VALID,42,VALID,0,
2010-08-17, 00:57:05,VALID,917.585,VALID,0,VALID,97.5035,VALID,0,VALID,19.7013,VALID,42,VALID,0,
2010-08-17, 00:58:05,VALID,917.602,VALID,0,VALID,97.4959,VALID,0,VALID,19.7013,VALID,42,VALID,0,
2010-08-17, 00:59:05,VALID,917.601,VALID,0,VALID,97.5035,VALID,0,VALID,19.7013,VALID,42,VALID,0,
2010-08-17, 01:00:05,VALID,917.555,VALID,0,VALID,97.4959,VALID,0,VALID,19.7013,VALID,42,VALID,0,
2010-08-17, 01:01:05,VALID,917.546,VALID,0,VALID,97.4959,VALID,0,VALID,19.7223,VALID,42,VALID,0,
2010-08-17, 01:02:05,VALID,917.537,VALID,0,VALID,97.4959,VALID,0,VALID,19.6818,VALID,42,VALID,0,
2010-08-17, 01:03:05,VALID,917.484,VALID,0,VALID,97.5111,VALID,0,VALID,19.6818,VALID,42,VALID,0,
2010-08-17, 01:04:05,VALID,917.476,VALID,0,VALID,97.4959,VALID,0,VALID,19.6818,VALID,42,VALID,0,
2010-08-17, 01:05:05,VALID,917.489,VALID,0,VALID,97.5035,VALID,0,VALID,19.6623,VALID,42,VALID,0,
2010-08-17, 01:06:05,VALID,917.448,VALID,0,VALID,97.5187,VALID,0,VALID,19.6833,VALID,42,VALID,0,
2010-08-17, 01:07:05,VALID,917.449,VALID,0,VALID,97.5035,VALID,0,VALID,19.6833,VALID,42,VALID,0,
2010-08-17, 01:08:05,VALID,917.446,VALID,0,VALID,97.5111,VALID,0,VALID,19.6638,VALID,42,VALID,0,
2010-08-17, 01:09:05,VALID,917.447,VALID,0,VALID,97.5111,VALID,0,VALID,19.6623,VALID,42,VALID,0.00351562,
2010-08-17, 01:10:05,VALID,917.384,VALID,0,VALID,97.5187,VALID,0,VALID,19.6833,VALID,42,VALID,0.273047,
2010-08-17, 01:11:05,VALID,917.39,VALID,0,VALID,97.5035,VALID,0,VALID,19.6833,VALID,42,VALID,0.145703,
2010-08-17, 01:12:05,VALID,917.351,VALID,0,VALID,97.5187,VALID,0,VALID,19.6623,VALID,42,VALID,0.160547,
2010-08-17, 01:13:05,VALID,917.341,VALID,0,VALID,97.5035,VALID,0.107441,VALID,19.6623,VALID,42,VALID,0,
2010-08-17, 01:14:05,VALID,917.295,VALID,0,VALID,97.5111,VALID,0,VALID,19.6623,VALID,42,VALID,0.121875,
2010-08-17, 01:15:05,VALID,917.285,VALID,0,VALID,97.5111,VALID,0,VALID,19.6623,VALID,42,VALID,0,
2010-08-17, 01:16:05,VALID,917.225,VALID,0,VALID,97.534,VALID,0,VALID,19.6818,VALID,42,VALID,0,
2010-08-17, 01:17:05,VALID,917.213,VALID,0,VALID,97.5111,VALID,0,VALID,19.7013,VALID,42,VALID,0.0714844,
2010-08-17, 01:18:05,VALID,917.187,VALID,0,VALID,97.5111,VALID,0,VALID,19.7013,VALID,42,VALID,0.389844,
2010-08-17, 01:19:05,VALID,917.161,VALID,0,VALID,97.534,VALID,0,VALID,19.6818,VALID,42,VALID,0.383594,
2010-08-17, 01:20:05,VALID,917.126,VALID,0,VALID,97.5035,VALID,0,VALID,19.6818,VALID,42,VALID,0.551953,
2010-08-17, 01:21:05,VALID,917.12,VALID,0,VALID,97.5187,VALID,0,VALID,19.7028,VALID,42,VALID,0.394922,
2010-08-17, 01:22:05,VALID,917.092,VALID,0,VALID,97.5111,VALID,0,VALID,19.7028,VALID,42,VALID,0.30625,
2010-08-17, 01:23:05,VALID,917.106,VALID,0,VALID,97.5187,VALID,0,VALID,19.6833,VALID,42,VALID,0.319922,
2010-08-17, 01:24:05,VALID,917.065,VALID,0,VALID,97.5187,VALID,0,VALID,19.7028,VALID,42,VALID,0.207813,
2010-08-17, 01:25:05,VALID,917.054,VALID,0,VALID,97.5111,VALID,0,VALID,19.6638,VALID,42,VALID,0.409766,
2010-08-17, 01:26:05,VALID,917.035,VALID,0,VALID,97.5111,VALID,0,VALID,19.6428,VALID,42,VALID,0.341016,
2010-08-17, 01:27:05,VALID,917.015,VALID,0,VALID,97.5264,VALID,0,VALID,19.6233,VALID,42,VALID,0.498437,
2010-08-17, 01:28:05,VALID,916.992,VALID,0,VALID,97.5187,VALID,0,VALID,19.6233,VALID,42,VALID,0.261719,
2010-08-17, 01:29:05,VALID,916.983,VALID,0,VALID,97.5264,VALID,0,VALID,19.6233,VALID,42,VALID,0,
2010-08-17, 01:30:05,VALID,916.938,VALID,0,VALID,97.5187,VALID,0,VALID,19.6233,VALID,42,VALID,0.444531,
2010-08-17, 01:31:05,VALID,916.933,VALID,0,VALID,97.5187,VALID,0,VALID,19.6443,VALID,42,VALID,0.271875,
2010-08-17, 01:32:05,VALID,916.878,VALID,0,VALID,97.5035,VALID,0,VALID,19.6233,VALID,42,VALID,0.473828,
2010-08-17, 01:33:05,VALID,916.865,VALID,0,VALID,97.5187,VALID,0,VALID,19.6443,VALID,42,VALID,0.468359,
2010-08-17, 01:34:05,VALID,916.889,VALID,0,VALID,97.5187,VALID,0,VALID,19.6638,VALID,42,VALID,0.419922,
2010-08-17, 01:35:05,VALID,916.872,VALID,0,VALID,97.534,VALID,0,VALID,19.6443,VALID,42,VALID,0.455078,
2010-08-17, 01:36:05,VALID,916.857,VALID,0,VALID,97.534,VALID,0,VALID,19.6038,VALID,42,VALID,0.366797,
2010-08-17, 01:37:05,VALID,916.854,VALID,0,VALID,97.5187,VALID,0,VALID,19.6053,VALID,42,VALID,0.326562,
2010-08-17, 01:38:05,VALID,916.862,VALID,0,VALID,97.5187,VALID,0,VALID,19.5843,VALID,42,VALID,0.334766,
2010-08-17, 01:39:05,VALID,916.888,VALID,0,VALID,97.5264,VALID,0,VALID,19.5843,VALID,42,VALID,0.332812,
2010-08-17, 01:40:05,VALID,916.838,VALID,0,VALID,97.5187,VALID,0,VALID,19.5843,VALID,42,VALID,0.291016,
2010-08-17, 01:41:05,VALID,916.847,VALID,0,VALID,97.5264,VALID,0,VALID,19.6053,VALID,42,VALID,0.466797,
2010-08-17, 01:42:05,VALID,916.859,VALID,0,VALID,97.5492,VALID,0,VALID,19.5858,VALID,42,VALID,0.425781,
2010-08-17, 01:43:05,VALID,916.826,VALID,0,VALID,97.534,VALID,0,VALID,19.6038,VALID,42,VALID,0.452734,
2010-08-17, 01:44:05,VALID,916.805,VALID,0,VALID,97.5187,VALID,0,VALID,19.6038,VALID,42,VALID,0.695313,
2010-08-17, 01:45:05,VALID,916.794,VALID,0,VALID,97.5264,VALID,0,VALID,19.6038,VALID,42,VALID,0.380859,
2010-08-17, 01:46:05,VALID,916.764,VALID,0,VALID,97.5416,VALID,0,VALID,19.6038,VALID,42,VALID,0.126953,
2010-08-17, 01:47:05,VALID,916.772,VALID,0,VALID,97.534,VALID,0,VALID,19.6038,VALID,42,VALID,0,
2010-08-17, 01:48:05,VALID,916.732,VALID,0,VALID,97.5187,VALID,0,VALID,19.6233,VALID,42,VALID,0.311328,
2010-08-17, 01:49:05,VALID,916.74,VALID,0,VALID,97.5264,VALID,0,VALID,19.6428,VALID,42,VALID,0.009375,
2010-08-17, 01:50:05,VALID,916.748,VALID,0,VALID,97.5492,VALID,0,VALID,19.6638,VALID,42,VALID,0.075,
2010-08-17, 01:51:05,VALID,916.717,VALID,0,VALID,97.5492,VALID,0,VALID,19.6428,VALID,42,VALID,0,
2010-08-17, 01:52:05,VALID,916.729,VALID,0,VALID,97.5492,VALID,0,VALID,19.6638,VALID,42,VALID,0.0375,
2010-08-17, 01:53:05,VALID,916.708,VALID,0,VALID,97.5416,VALID,0,VALID,19.6638,VALID,42,VALID,0.000390625,
2010-08-17, 01:54:05,VALID,916.688,VALID,0,VALID,97.534,VALID,0,VALID,19.6428,VALID,42,VALID,0.021875,
2010-08-17, 01:55:05,VALID,916.682,VALID,0,VALID,97.534,VALID,0,VALID,19.6623,VALID,42,VALID,0,
2010-08-17, 01:56:05,VALID,916.66,VALID,0,VALID,97.5416,VALID,0,VALID,19.6818,VALID,42,VALID,0,
2010-08-17, 01:57:05,VALID,916.655,VALID,0,VALID,97.534,VALID,0,VALID,19.6818,VALID,42,VALID,0.0535156,
2010-08-17, 01:58:05,VALID,916.631,VALID,0,VALID,97.5111,VALID,0,VALID,19.6818,VALID,42,VALID,0.382031,
2010-08-17, 01:59:05,VALID,916.66,VALID,0,VALID,97.5111,VALID,0,VALID,19.6818,VALID,42,VALID,0.280859,
2010-08-17, 02:00:05,VALID,916.669,VALID,0,VALID,97.534,VALID,0,VALID,19.6623,VALID,42,VALID,0.603125,
2010-08-17, 02:01:05,VALID,916.654,VALID,0,VALID,97.5264,VALID,0,VALID,19.6233,VALID,42,VALID,0.258984,
2010-08-17, 02:02:05,VALID,916.67,VALID,0,VALID,97.5264,VALID,0,VALID,19.6233,VALID,42,VALID,0.374609,
2010-08-17, 02:03:05,VALID,916.655,VALID,0,VALID,97.534,VALID,0,VALID,19.6428,VALID,42,VALID,0.289063,
2010-08-17, 02:04:05,VALID,916.643,VALID,0,VALID,97.5264,VALID,0.107441,VALID,19.6623,VALID,42,VALID,0.278125,
2010-08-17, 02:05:05,VALID,916.623,VALID,0,VALID,97.5492,VALID,0,VALID,19.6833,VALID,42,VALID,0.540234,
2010-08-17, 02:06:05,VALID,916.613,VALID,0,VALID,97.534,VALID,0,VALID,19.6428,VALID,42,VALID,0.214453,
2010-08-17, 02:07:05,VALID,916.587,VALID,0,VALID,97.5264,VALID,0,VALID,19.6623,VALID,42,VALID,0.329297,
2010-08-17, 02:08:05,VALID,916.61,VALID,0,VALID,97.5264,VALID,0,VALID,19.6623,VALID,42,VALID,0.551172,
2010-08-17, 02:09:05,VALID,916.606,VALID,0,VALID,97.534,VALID,0.107441,VALID,19.6818,VALID,42,VALID,0.326953,
2010-08-17, 02:10:05,VALID,916.595,VALID,0,VALID,97.5492,VALID,0,VALID,19.6623,VALID,42,VALID,0.317187,
2010-08-17, 02:11:05,VALID,916.589,VALID,0,VALID,97.5416,VALID,0,VALID,19.6623,VALID,42,VALID,0.590625,
2010-08-17, 02:12:05,VALID,916.556,VALID,0,VALID,97.5492,VALID,0,VALID,19.6818,VALID,42,VALID,0.276172,
2010-08-17, 02:13:05,VALID,916.571,VALID,0,VALID,97.5416,VALID,0,VALID,19.7013,VALID,42,VALID,0.522656,
2010-08-17, 02:14:05,VALID,916.541,VALID,0,VALID,97.5264,VALID,0.107441,VALID,19.7013,VALID,42,VALID,0.434766,
2010-08-17, 02:15:05,VALID,916.537,VALID,0,VALID,97.534,VALID,0,VALID,19.7013,VALID,42,VALID,0.725391,
2010-08-17, 02:16:05,VALID,916.52,VALID,0,VALID,97.534,VALID,0,VALID,19.6818,VALID,42,VALID,0.603906,
2010-08-17, 02:17:05,VALID,916.47,VALID,0,VALID,97.5111,VALID,0,VALID,19.6623,VALID,42,VALID,0.44375,
2010-08-17, 02:18:05,VALID,916.457,VALID,0,VALID,97.5264,VALID,0,VALID,19.6428,VALID,42,VALID,0,
2010-08-17, 02:19:05,VALID,916.452,VALID,0,VALID,97.5416,VALID,0,VALID,19.6428,VALID,42,VALID,0.49375,
2010-08-17, 02:20:05,VALID,916.406,VALID,0,VALID,97.5264,VALID,0,VALID,19.6623,VALID,42,VALID,0.414453,
2010-08-17, 02:21:05,VALID,916.409,VALID,0,VALID,97.534,VALID,0,VALID,19.6638,VALID,42,VALID,0.576172,
2010-08-17, 02:22:05,VALID,916.387,VALID,0,VALID,97.5187,VALID,0,VALID,19.6428,VALID,42,VALID,0.743359,
2010-08-17, 02:23:05,VALID,916.374,VALID,0,VALID,97.5416,VALID,0,VALID,19.6428,VALID,42,VALID,0.635938,
2010-08-17, 02:24:05,VALID,916.347,VALID,0,VALID,97.5416,VALID,0,VALID,19.6638,VALID,42,VALID,0.705078,
2010-08-17, 02:25:05,VALID,916.339,VALID,0,VALID,97.5264,VALID,0,VALID,19.6233,VALID,42,VALID,0.819531,
2010-08-17, 02:26:05,VALID,916.352,VALID,0,VALID,97.534,VALID,0,VALID,19.6248,VALID,42,VALID,0.825781,
2010-08-17, 02:27:05,VALID,916.302,VALID,0,VALID,97.5492,VALID,0,VALID,19.6233,VALID,42,VALID,0.833984,
2010-08-17, 02:28:05,VALID,916.294,VALID,0,VALID,97.5264,VALID,0.107441,VALID,19.6233,VALID,42,VALID,0.9875,
2010-08-17, 02:29:05,VALID,916.27,VALID,0,VALID,97.534,VALID,0,VALID,19.6233,VALID,42,VALID,0.928516,
2010-08-17, 02:30:05,VALID,916.258,VALID,0,VALID,97.5492,VALID,0,VALID,19.6623,VALID,42,VALID,0.842578,
2010-08-17, 02:31:05,VALID,916.265,VALID,0,VALID,97.5264,VALID,0,VALID,19.6218,VALID,42,VALID,1.16602,
2010-08-17, 02:32:05,VALID,916.242,VALID,0,VALID,97.5492,VALID,0,VALID,19.6833,VALID,42,VALID,0.810156,
2010-08-17, 02:33:05,VALID,916.229,VALID,0,VALID,97.5416,VALID,0,VALID,19.6233,VALID,42,VALID,1.31055,
2010-08-17, 02:34:05,VALID,916.223,VALID,0,VALID,97.5264,VALID,0,VALID,19.6248,VALID,42,VALID,1.06172,
2010-08-17, 02:35:05,VALID,916.187,VALID,0,VALID,97.5492,VALID,0,VALID,19.6038,VALID,42,VALID,0.958984,
2010-08-17, 02:36:05,VALID,916.184,VALID,0,VALID,97.5416,VALID,0,VALID,19.6038,VALID,42,VALID,0.914063,
2010-08-17, 02:37:05,VALID,916.15,VALID,0,VALID,97.5492,VALID,0,VALID,19.6038,VALID,42,VALID,0.923437,
2010-08-17, 02:38:05,VALID,916.105,VALID,0,VALID,97.534,VALID,0,VALID,19.5843,VALID,42,VALID,1.48828,
2010-08-17, 02:39:05,VALID,916.106,VALID,0,VALID,97.534,VALID,0,VALID,19.6248,VALID,42,VALID,0.592969,
2010-08-17, 02:40:05,VALID,916.075,VALID,0,VALID,97.534,VALID,0,VALID,19.6248,VALID,42,VALID,1.12148,
2010-08-17, 02:41:05,VALID,916.036,VALID,0,VALID,97.534,VALID,0,VALID,19.6053,VALID,42,VALID,0.570313,
2010-08-17, 02:42:05,VALID,916.031,VALID,0,VALID,97.5569,VALID,0,VALID,19.6248,VALID,42,VALID,0.789844,
2010-08-17, 02:43:05,VALID,915.986,VALID,0,VALID,97.5492,VALID,0,VALID,19.5843,VALID,42,VALID,0.619531,
2010-08-17, 02:44:05,VALID,915.998,VALID,0,VALID,97.5569,VALID,0,VALID,19.5843,VALID,42,VALID,0.274609,
2010-08-17, 02:45:05,VALID,915.96,VALID,0,VALID,97.5187,VALID,0,VALID,19.6053,VALID,42,VALID,0.790234,
2010-08-17, 02:46:05,VALID,915.967,VALID,0,VALID,97.5416,VALID,0,VALID,19.5843,VALID,42,VALID,0.816406,
2010-08-17, 02:47:05,VALID,915.93,VALID,0,VALID,97.5569,VALID,0,VALID,19.6233,VALID,42,VALID,0.661328,
2010-08-17, 02:48:05,VALID,915.927,VALID,0,VALID,97.5645,VALID,0,VALID,19.6233,VALID,42,VALID,0.385547,
2010-08-17, 02:49:05,VALID,915.898,VALID,0,VALID,97.5492,VALID,0,VALID,19.6233,VALID,42,VALID,0.883984,
2010-08-17, 02:50:05,VALID,915.869,VALID,0,VALID,97.5492,VALID,0,VALID,19.6623,VALID,41,VALID,1.16523,
2010-08-17, 02:51:05,VALID,915.901,VALID,0,VALID,97.534,VALID,0,VALID,19.6623,VALID,42,VALID,1.00273,
2010-08-17, 02:52:05,VALID,915.876,VALID,0,VALID,97.5492,VALID,0,VALID,19.6818,VALID,42,VALID,1.02852,
2010-08-17, 02:53:05,VALID,915.866,VALID,0,VALID,97.534,VALID,0,VALID,19.6623,VALID,42,VALID,0.512109,
2010-08-17, 02:54:05,VALID,915.872,VALID,0,VALID,97.5264,VALID,0,VALID,19.6428,VALID,42,VALID,0.840234,
2010-08-17, 02:55:05,VALID,915.889,VALID,0,VALID,97.5416,VALID,0,VALID,19.6443,VALID,42,VALID,0.660937,
2010-08-17, 02:56:05,VALID,915.869,VALID,0,VALID,97.534,VALID,0,VALID,19.6233,VALID,42,VALID,0.708203,
2010-08-17, 02:57:05,VALID,915.876,VALID,0,VALID,97.534,VALID,0,VALID,19.6233,VALID,42,VALID,0.720312,
2010-08-17, 02:58:05,VALID,915.861,VALID,0,VALID,97.5492,VALID,0,VALID,19.6443,VALID,42,VALID,1.07383,
2010-08-17, 02:59:05,VALID,915.865,VALID,0,VALID,97.5492,VALID,0,VALID,19.6428,VALID,42,VALID,0.679297,
2010-08-17, 03:00:05,VALID,915.846,VALID,0,VALID,97.534,VALID,0,VALID,19.6443,VALID,42,VALID,1.0293,
2010-08-17, 03:01:05,VALID,915.863,VALID,0,VALID,97.5492,VALID,0,VALID,19.6038,VALID,42,VALID,1.02969,
2010-08-17, 03:02:05,VALID,915.86,VALID,0,VALID,97.534,VALID,0,VALID,19.6038,VALID,42,VALID,0.372266,
2010-08-17, 03:03:05,VALID,915.836,VALID,0,VALID,97.5492,VALID,0,VALID,19.6233,VALID,42,VALID,0.965234,
2010-08-17, 03:04:05,VALID,915.821,VALID,0,VALID,97.5569,VALID,0,VALID,19.6038,VALID,41,VALID,0.780469,
2010-08-17, 03:05:05,VALID,915.821,VALID,0,VALID,97.5492,VALID,0,VALID,19.6233,VALID,41,VALID,0.462109,
2010-08-17, 03:06:05,VALID,915.796,VALID,0,VALID,97.5416,VALID,0,VALID,19.6428,VALID,42,VALID,0,
2010-08-17, 03:07:05,VALID,915.767,VALID,0,VALID,97.5492,VALID,0,VALID,19.6428,VALID,42,VALID,0.1125,
2010-08-17, 03:08:05,VALID,915.755,VALID,0,VALID,97.5569,VALID,0,VALID,19.6428,VALID,42,VALID,0,
2010-08-17, 03:09:05,VALID,915.704,VALID,0,VALID,97.5492,VALID,0,VALID,19.6428,VALID,42,VALID,0,
2010-08-17, 03:10:05,VALID,915.705,VALID,0,VALID,97.5492,VALID,0,VALID,19.6443,VALID,42,VALID,0.998047,
2010-08-17, 03:11:05,VALID,915.684,VALID,0,VALID,97.5645,VALID,0,VALID,19.6623,VALID,42,VALID,0.392188,
2010-08-17, 03:12:05,VALID,915.67,VALID,0,VALID,97.5569,VALID,0,VALID,19.6638,VALID,42,VALID,0.173828,
2010-08-17, 03:13:05,VALID,915.685,VALID,0,VALID,97.5416,VALID,0,VALID,19.6623,VALID,42,VALID,0.750781,
2010-08-17, 03:14:05,VALID,915.645,VALID,0,VALID,97.5492,VALID,0.107441,VALID,19.6818,VALID,42,VALID,0.552734,
2010-08-17, 03:15:05,VALID,915.602,VALID,0,VALID,97.5492,VALID,0,VALID,19.7223,VALID,42,VALID,0.877344,
2010-08-17, 03:16:05,VALID,915.594,VALID,0,VALID,97.5416,VALID,0,VALID,19.6818,VALID,42,VALID,0.85,
2010-08-17, 03:17:05,VALID,915.573,VALID,0,VALID,97.5569,VALID,0.107441,VALID,19.6818,VALID,41,VALID,1.28164,
2010-08-17, 03:18:05,VALID,915.574,VALID,0,VALID,97.5569,VALID,0,VALID,19.6638,VALID,42,VALID,0.815234,
2010-08-17, 03:19:05,VALID,915.564,VALID,0,VALID,97.5569,VALID,0,VALID,19.6428,VALID,41,VALID,0.800391,
2010-08-17, 03:20:05,VALID,915.557,VALID,0,VALID,97.5569,VALID,0,VALID,19.6428,VALID,42,VALID,0.9125,
2010-08-17, 03:21:05,VALID,915.518,VALID,0,VALID,97.5569,VALID,0,VALID,19.6428,VALID,42,VALID,0.992969,
2010-08-17, 03:22:05,VALID,915.501,VALID,0,VALID,97.5569,VALID,0,VALID,19.6623,VALID,42,VALID,0.832422,
2010-08-17, 03:23:05,VALID,915.513,VALID,0,VALID,97.5569,VALID,0,VALID,19.6623,VALID,42,VALID,0.435156,
2010-08-17, 03:24:05,VALID,915.509,VALID,0,VALID,97.5492,VALID,0,VALID,19.7028,VALID,41,VALID,0.383203,
2010-08-17, 03:25:05,VALID,915.526,VALID,0,VALID,97.5416,VALID,0,VALID,19.6818,VALID,42,VALID,0.539453,
2010-08-17, 03:26:05,VALID,915.542,VALID,0,VALID,97.5569,VALID,0,VALID,19.6623,VALID,42,VALID,0.880859,
2010-08-17, 03:27:05,VALID,915.51,VALID,0,VALID,97.5569,VALID,0,VALID,19.6443,VALID,42,VALID,0.912109,
2010-08-17, 03:28:05,VALID,915.518,VALID,0,VALID,97.5416,VALID,0,VALID,19.6233,VALID,42,VALID,0.928516,
2010-08-17, 03:29:05,VALID,915.546,VALID,0,VALID,97.5569,VALID,0,VALID,19.6233,VALID,42,VALID,1.07422,
2010-08-17, 03:30:04,VALID,915.558,VALID,0,VALID,97.5492,VALID,0,VALID,19.6428,VALID,42,VALID,1.27891,
2010-08-17, 03:31:04,VALID,915.605,VALID,0,VALID,97.5721,VALID,0,VALID,19.6833,VALID,42,VALID,0.984375,
2010-08-17, 03:32:04,VALID,915.585,VALID,0,VALID,97.5569,VALID,0,VALID,19.6818,VALID,42,VALID,1.50937,
2010-08-17, 03:33:04,VALID,915.652,VALID,0,VALID,97.5492,VALID,0,VALID,19.6623,VALID,42,VALID,1.40508,
2010-08-17, 03:34:04,VALID,915.621,VALID,0,VALID,97.5416,VALID,0,VALID,19.6833,VALID,42,VALID,0.522266,
2010-08-17, 03:35:04,VALID,915.65,VALID,0,VALID,97.5569,VALID,0,VALID,19.6038,VALID,42,VALID,0.915234,
2010-08-17, 03:36:04,VALID,915.647,VALID,0,VALID,97.5416,VALID,0,VALID,19.6038,VALID,42,VALID,0.628906,
2010-08-17, 03:37:04,VALID,915.675,VALID,0,VALID,97.5492,VALID,0,VALID,19.6638,VALID,42,VALID,0.627344,
2010-08-17, 03:38:04,VALID,915.72,VALID,0,VALID,97.5492,VALID,0,VALID,19.6818,VALID,42,VALID,1.18906,
2010-08-17, 03:39:04,VALID,915.693,VALID,0,VALID,97.5569,VALID,0,VALID,19.6818,VALID,42,VALID,0.628906,
2010-08-17, 03:40:04,VALID,915.718,VALID,0,VALID,97.5721,VALID,0.107441,VALID,19.6623,VALID,42,VALID,1.2957,
2010-08-17, 03:41:04,VALID,915.734,VALID,0,VALID,97.5264,VALID,0,VALID,19.6443,VALID,41,VALID,0.777344,
2010-08-17, 03:42:04,VALID,915.75,VALID,0,VALID,97.5569,VALID,0,VALID,19.6038,VALID,41,VALID,0.889063,
2010-08-17, 03:43:04,VALID,915.74,VALID,0,VALID,97.5721,VALID,0,VALID,19.5843,VALID,42,VALID,1.27227,
2010-08-17, 03:44:04,VALID,915.783,VALID,0,VALID,97.5569,VALID,0,VALID,19.5858,VALID,41,VALID,1.07617,
2010-08-17, 03:45:04,VALID,915.785,VALID,0,VALID,97.5569,VALID,0,VALID,19.6053,VALID,41,VALID,0.682031,
2010-08-17, 03:46:04,VALID,915.756,VALID,0,VALID,97.5492,VALID,0,VALID,19.6038,VALID,41,VALID,0.271875,
2010-08-17, 03:47:04,VALID,915.786,VALID,0,VALID,97.5645,VALID,0,VALID,19.6443,VALID,41,VALID,1.01641,
2010-08-17, 03:48:04,VALID,915.769,VALID,0,VALID,97.5569,VALID,0,VALID,19.6248,VALID,41,VALID,1.10703,